SCP
0 0 0 0 0 0 0 0 0 0 0 0 0 0 0 0 0 0 0 0 0 0 0 0 0 0 0 0 0 0 0 0 0 0 0 0 0 0 0 0 0 0 0 0 0 0 0 0 0
0 0 0 0 0 0 0 0 0 0 0 0 0 0 0 0 0 0 0 0 0 0 0 0 0 0 0 0 0 0 0 0 0 0 0 0 0 0 0 0 0 0 0 0 0 0 0 0 0
0 0 0 0 0 0 0 0 0 0 0 0 0 0 0 0 0 0 0 0 0 0 0 0 0 0 0 0 0 0 0 0 0 0 0 0 0 0 0 0 0 0 0 0 0 0 0 0 0
0 0 0 0 0 0 0 0 0 0 0 0 0 0 0 0 0 0 0 0 0 0 0 0 0 0 0 0 0 0 0 0 0 0 0 0 0 0 0 0 0 0 0 0 0 0 0 0 0
0 0 0 0 0 0 0 0 0 0 0 0 0 0 0 0 0 0 0 0 0 0 0 0 0 0 0 0 0 0 0 0 0 0 0 0 0 0 0 0 0 0 0 0 0 0 0 0 0
0 0 0 0 0 0 0 0 0 0 0 0 0 0 0 0 0 0 0 0 0 0 0 0 0 0 0 0 0 0 0 0 0 0 0 0 0 0 0 0 0 0 0 0 0 0 0 0 0
0 0 0 0 0 0 0 0 0 0 0 0 0 0 0 0 0 0 0 0 0 0 0 0 0 0 0 0 0 0 0 0 0 0 0 0 0 0 0 0 0 0 0 0 0 0 0 0 0
0 0 0 0 0 0 0 0 0 0 0 0 0 0 0 0 0 0 0 0 0 0 0 0 0 0 0 0 0 0 0 0 0 0 0 0 0 0 0 0 0 0 0 0 0 0 0 0 0
0 0 0 0 0 0 0 0 0 0 0 0 0 0 0 0 0 0 0 0 0 0 0 0 0 0 0 0 0 0 0 0 0 0 0 0 0 0 0 0 0 0 0 0 0 0 0 0 0
0 0 0 0 0 0 0 0 0 0 0 0 0 0 0 0 0 0 0 0 0 0 0 0 0 0 0 0 0 0 0 0 0 0 0 0 0 0 0 0 0 0 0 0 0 0 0 0 0
0 0 0 0 0 0 0 0 0 0 0 0 0 0 0 0 0 0 0 0 0 0 0 0 0 0 0 0 0 0 0 0 0 0 0 0 0 0 0 0 0 0 0 0 0 0 0 0 0
0 0 0 0 0 0 0 0 0 0 0 0 0 0 0 0 0 0 0 0 0 0 0 0 0 0 0 0 0 0 0 0 0 0 0 0 0 0 0 0 0 0 0 0 0 0 0 0 0
0 0 0 0 0 0 0 0 0 0 0 0 0 0 0 0 0 0 0 0 0 0 0 0 0 0 0 0 0 0 0 0 0 0 0 0 0 0 0 0 0 0 0 0 0 0 0 0 0
0 0 0 0 0 0 0 0 0 0 0 0 0 0 0 0 0 0 0 0 0 0 0 0 0 0 0 0 0 0 0 0 0 0 0 0 0 0 0 0 0 0 0 0 0 0 0 0 0
0 0 0 0 0 0 0 0 0 0 0 0 0 0 0 0 0 0 0 0 0 0 0 0 0 0 0 0 0 0 0 0 0 0 0 0 0 0 0 0 0 0 0 0 0 0 0 0 0
0 0 0 0 0 0 0 0 0 0 0 0 0 0 0 0 0 0 0 0 0 0 0 0 0 0 0 0 0 0 0 0 0 0 0 0 0 0 0 0 0 0 0 0 0 0 0 0 0
0 0 0 0 0 0 0 0 0 0 0 0 0 0 0 0 0 0 0 0 0 0 0 0 0 0 0 0 0 0 0 0 0 0 0 0 0 0 0 0 0 0 0 0 0 0 0 0 0
0 0 0 0 0 0 0 0 0 0 0 0 0 0 0 0 0 0 0 0 0 0 0 0 0 0 0 0 0 0 0 0 0 0 0 0 0 0 0 0 0 0 0 0 0 0 0 0 0
0 0 0 0 0 0 0 0 0 0 0 0 0 0 0 0 0 0 0 0 0 0 0 0 0 0 0 0 0 0 0 0 0 0 0 0 0 0 0 0 0 0 0 0 0 0 0 0 0
0 0 0 0 0 0 0 0 0 0 0 0 0 0 0 0 0 0 0 0 0 0 0 0 0 0 0 0 0 0 0 0 0 0 0 0 0 0 0 0 0 0 0 0 0 0 0 0 0
0 0 0 0 0 0 0 0 0 0 0 0 0 0 0 0 0 0 0 0 0 0 0 0 0 0 0 0 0 0 0 0 0 0 0 0 0 0 0 0 0 0 0 0 0 0 0 0 0
0 0 0 0 0 0 0 0 0 0 0 0 0 0 0 0 0 0 0 0 0 0 0 0 0 0 0 0 0 0 0 0 0 0 0 0 0 0 0 0 0 0 0 0 0 0 0 0 0
0 0 0 0 0 0 0 0 0 0 0 0 0 0 0 0 0 0 0 0 0 0 0 0 0 0 0 0 0 0 0 0 0 0 0 0 0 0 0 0 0 0 0 0 0 0 0 0 0
0 0 0 0 0 0 0 0 0 0 0 0 0 0 0 0 0 0 0 0 0 0 0 0 0 0 0 0 0 0 0 0 0 0 0 0 0 0 0 0 0 0 0 0 0 0 0 0 0
0 0 0 0 0 0 0 0 0 0 0 0 0 0 0 0 0 0 0 0 0 0 0 0 0 0 0 0 0 0 0 0 0 0 0 0 0 0 0 0 0 0 0 0 0 0 0 0 0
0 0 0 0 0 0 0 0 0 0 0 0 0 0 0 0 0 0 0 0 0 0 0 0 0 0 0 0 0 0 0 0 0 0 0 0 0 0 0 0 0 0 0 0 0 0 0 0 0
0 0 0 0 0 0 0 0 0 0 0 0 0 0 0 0 0 0 0 0 0 0 0 0 0 0 0 0 0 0 0 0 0 0 0 0 0 0 0 0 0 0 0 0 0 0 0 0 0
0 0 0 0 0 0 0 0 0 0 0 0 0 0 0 0 0 0 0 0 0 0 0 0 0 0 0 0 0 0 0 0 0 0 0 0 0 0 0 0 0 0 0 0 0 0 0 0 0
0 0 0 0 0 0 0 0 0 0 0 0 0 0 0 0 0 0 0 0 0 0 0 0 0 0 0 0 0 0 0 0 0 0 0 0 0 0 0 0 0 0 0 0 0 0 0 0 0
0 0 0 0 0 0 0 0 0 0 0 0 0 0 0 0 0 0 0 0 0 0 0 0 0 0 0 0 0 0 0 0 0 0 0 0 0 0 0 0 0 0 0 0 0 0 0 0 0
Wind_Speed
6 4 3 3 3 3 7 6 4 4 5 6 6 5 6 7 6 6 5 3 3 3 3 4 5 5 5 5 6 6 7 7 7 8 7 7 6 6 6 5 5 5 5 6 6 7 7 7 7
3 2 3 2 1 5 7 5 6 6 6 5 5 5 6 7 6 6 4 3 3 4 4 6 6 6 6 6 6 6 7 7 8 8 7 7 7 7 7 6 6 5 6 6 7 7 7 7 7
3 2 2 0 3 5 7 6 7 7 5 3 4 5 5 6 5 4 5 4 4 5 5 7 6 6 6 7 7 7 7 7 8 8 8 8 8 8 8 8 8 7 7 7 8 8 7 7 7
1 2 1 2 8 7 6 6 6 6 4 4 4 6 6 6 4 6 5 4 5 5 5 8 6 7 7 7 7 7 7 8 8 8 8 8 8 8 9 8 8 8 8 8 8 8 8 8 7
1 1 2 5 7 6 5 5 4 3 4 4 4 7 7 6 6 7 5 5 5 5 5 7 7 7 8 7 7 7 8 9 9 9 9 9 9 9 8 8 8 8 8 8 8 8 8 8 8
1 1 3 6 7 6 4 3 3 4 5 5 5 6 7 6 6 6 5 5 5 5 5 7 8 7 8 8 8 8 9 9 10 10 10 10 9 9 9 9 8 8 8 8 7 7 8 8 8
0 1 4 6 6 5 4 2 2 4 5 4 3 5 7 6 5 5 5 5 5 5 5 5 6 7 8 8 9 9 9 10 10 11 10 10 10 10 9 8 8 8 8 8 7 7 8 8 8
1 2 5 5 5 5 4 3 2 2 4 4 2 4 6 7 6 6 5 5 5 5 5 5 5 5 6 7 9 8 9 9 10 10 9 8 8 8 7 7 8 8 8 8 8 8 9 9 9
2 2 4 4 4 5 4 4 3 2 4 4 3 4 7 9 7 6 5 5 4 4 4 4 4 5 5 6 7 6 6 7 5 7 6 2 4 6 6 9 9 9 9 9 9 9 9 8 9
1 2 4 3 3 4 4 3 4 4 4 5 6 6 7 8 7 6 5 4 4 4 4 4 4 5 5 4 4 3 4 5 4 4 4 4 5 5 6 9 9 9 9 9 9 7 5 2 4
1 3 4 3 3 3 4 3 3 3 3 4 6 9 9 8 6 5 5 4 4 4 4 4 4 4 4 4 3 3 3 3 4 5 4 4 4 3 4 4 6 6 5 5 6 3 4 4 4
3 3 3 4 3 3 3 3 3 1 2 3 5 8 8 8 6 5 4 4 4 4 4 4 3 4 4 4 3 2 3 3 3 4 5 3 3 3 4 3 4 4 3 4 4 3 5 5 5
3 3 3 3 3 3 3 3 2 2 2 4 6 8 7 7 6 4 3 4 4 4 4 4 3 3 4 4 2 2 3 3 4 3 3 4 3 3 4 4 3 4 3 3 3 4 5 5 5
3 3 3 3 3 4 4 3 3 3 4 6 7 7 7 6 5 5 4 4 4 4 4 4 3 3 3 3 2 3 3 3 3 3 3 4 3 3 3 4 4 4 3 3 3 4 4 4 4
3 3 4 3 3 3 4 4 4 4 6 7 7 6 6 5 5 5 4 4 4 4 4 4 3 3 3 3 2 2 1 2 2 2 3 4 3 3 3 3 3 3 3 3 3 4 3 3 3
4 4 3 3 3 3 6 2 4 5 7 7 6 6 6 5 5 4 4 4 4 4 4 5 3 3 3 2 2 2 2 2 2 2 2 3 3 3 3 2 2 3 2 2 2 2 2 3 3
4 3 2 4 3 4 5 2 4 5 7 6 6 6 6 6 5 5 5 5 4 4 4 5 5 4 3 3 2 2 2 2 1 1 2 2 3 3 3 2 2 2 2 2 2 2 2 2 2
2 3 3 3 3 5 6 3 3 5 6 6 6 6 6 5 4 4 5 5 5 5 4 5 5 4 4 3 2 2 2 1 1 1 1 2 2 2 2 1 1 2 1 1 2 2 2 1 1
4 4 3 1 1 4 5 4 3 5 6 6 6 6 6 5 4 4 5 6 6 6 5 5 5 4 3 2 2 1 1 1 1 1 2 2 1 2 2 1 1 1 1 1 1 1 2 1 1
7 6 4 2 1 4 4 4 3 4 5 5 6 6 5 5 5 5 5 6 6 6 5 5 4 4 4 2 1 1 1 1 2 1 1 1 1 1 1 1 1 1 1 1 1 1 0 1 0
6 6 4 3 2 4 4 4 5 4 4 3 4 4 4 4 5 6 6 6 6 6 5 4 4 4 4 3 2 2 2 1 2 1 1 0 1 1 0 0 0 1 1 1 0 1 1 1 1
5 3 5 5 6 2 4 3 3 4 4 4 4 4 4 5 5 5 6 6 5 5 4 4 5 5 4 4 3 3 2 1 1 1 1 1 1 1 1 1 1 1 0 1 1 1 1 1 1
2 2 4 5 6 5 4 5 2 3 3 3 3 4 4 5 5 5 5 5 5 4 4 4 4 4 4 4 4 3 2 1 1 1 1 1 1 1 1 1 1 1 1 1 1 1 2 2 1
4 5 4 5 6 6 4 6 1 1 1 1 2 3 4 5 5 5 5 5 5 4 4 4 4 4 4 4 4 4 3 3 2 2 1 1 1 1 1 2 2 2 2 2 2 2 2 2 2
6 6 4 6 5 3 2 5 1 2 2 2 2 2 3 4 5 5 5 5 5 5 5 5 5 4 4 5 4 4 4 3 3 2 2 2 1 1 2 2 3 2 2 2 2 3 3 3 3
7 7 5 4 3 2 4 4 2 2 1 1 0 2 3 4 4 4 5 5 5 5 5 4 4 4 4 4 4 3 3 2 2 2 2 2 2 2 2 3 3 3 3 3 3 3 3 3 3
6 6 5 6 4 5 3 3 3 2 1 1 2 3 3 3 4 4 5 5 5 5 5 4 4 4 4 4 3 3 3 2 2 3 3 2 2 2 2 3 3 3 3 4 4 4 4 3 4
3 4 5 6 5 5 4 5 3 3 2 2 2 2 2 3 3 3 4 4 4 4 4 4 3 3 4 3 3 2 3 2 2 3 3 3 3 3 3 3 3 3 4 4 4 4 3 4 3
5 6 5 5 5 5 4 2 1 2 1 2 1 1 2 2 3 3 3 3 4 4 4 3 3 3 3 3 3 4 3 3 3 3 2 3 3 3 3 4 4 4 3 4 4 4 4 4 4
6 6 7 7 6 7 6 1 4 1 1 1 1 1 2 2 3 3 3 3 3 4 3 3 2 2 2 3 3 3 3 4 4 3 3 4 4 3 3 3 4 3 3 4 4 4 4 5 4
Wind_Direction
172 178 213 229 209 107 80 78 81 91 78 64 58 57 60 46 28 60 73 65 40 44 49 79 59 55 65 66 67 68 66 67 69 71 70 70 73 73 71 71 80 83 84 88 89 91 91 93 92
156 173 224 235 203 110 86 85 87 76 90 93 71 64 69 67 55 78 86 73 59 55 57 61 60 58 61 64 67 70 68 68 68 68 65 64 68 70 72 73 74 81 85 89 92 89 86 86 84
141 226 271 214 76 77 92 89 91 95 96 84 79 56 50 65 73 78 76 88 78 66 64 70 52 59 63 64 68 69 69 71 71 67 64 62 66 67 70 71 68 70 77 83 88 88 87 86 83
221 207 215 102 90 73 85 98 108 121 104 74 91 86 78 62 73 83 95 95 85 74 70 75 54 58 64 67 69 70 71 73 74 71 67 66 66 67 67 65 67 68 71 74 79 85 86 83 81
245 256 126 109 95 89 82 84 111 108 96 93 91 92 93 87 91 99 102 92 83 75 70 78 62 57 59 65 71 73 73 74 75 73 68 68 69 70 71 68 69 73 76 74 74 79 81 78 76
199 216 131 112 105 102 100 105 120 97 99 105 104 101 96 108 113 105 98 92 85 79 78 87 84 67 62 63 70 73 73 73 73 71 68 68 69 70 69 67 68 74 77 72 72 77 78 76 76
340 96 103 113 117 115 99 92 101 106 105 99 109 105 113 124 119 116 110 103 93 88 83 80 90 97 91 80 75 73 71 71 72 70 70 70 69 67 68 70 69 77 80 77 74 75 73 75 77
324 137 125 121 124 107 105 111 87 96 96 106 134 111 122 131 134 133 124 113 102 93 86 86 82 80 91 98 86 75 71 71 73 72 69 73 85 82 77 82 76 83 85 79 77 74 74 77 76
239 168 129 127 128 115 127 133 116 106 120 125 113 88 106 128 144 145 137 126 113 100 92 94 91 86 83 84 92 95 93 81 94 98 92 89 76 77 89 71 75 79 81 80 80 79 80 87 87
220 128 109 115 129 128 137 137 139 152 135 130 128 121 131 146 154 152 147 138 126 116 102 94 95 94 90 85 92 82 79 78 60 64 73 65 62 63 75 95 88 87 88 90 83 85 103 102 92
101 104 121 137 141 146 151 144 155 158 134 144 147 145 151 157 159 155 143 131 115 112 108 101 99 96 91 93 80 73 69 71 66 60 72 72 73 86 83 96 113 106 105 90 99 105 74 74 68
112 111 135 140 151 177 169 158 159 178 97 127 144 148 154 163 162 157 142 132 129 125 117 111 110 108 100 93 89 85 79 70 66 62 64 68 69 66 71 73 75 79 76 70 66 62 71 71 75
133 128 136 152 170 182 173 173 159 147 135 140 145 154 164 168 163 159 149 141 139 135 132 117 119 112 106 93 90 92 78 64 71 57 55 66 66 70 77 78 76 72 71 74 69 67 66 61 60
123 143 152 167 171 180 180 167 174 150 159 157 160 164 170 172 173 170 170 162 153 149 136 128 133 126 126 126 115 86 86 91 71 67 66 69 71 72 67 71 71 70 67 62 71 74 70 65 61
165 166 164 177 192 185 199 187 180 164 173 172 173 170 173 177 184 192 183 180 167 152 142 132 136 137 137 115 95 93 92 82 76 77 75 78 67 67 73 69 76 75 80 80 66 72 67 71 74
195 204 185 158 190 188 229 196 154 169 184 183 184 177 182 188 197 199 193 186 178 165 150 140 144 149 132 120 122 107 104 88 77 79 69 78 74 61 64 63 71 77 73 76 79 72 78 77 68
202 212 201 163 186 201 227 226 153 178 193 195 195 191 190 188 194 197 194 189 185 176 166 151 148 152 139 138 132 114 107 98 72 73 65 57 64 65 77 62 54 77 81 76 74 70 68 75 69
213 229 218 204 172 219 228 228 169 187 205 209 204 203 197 198 191 184 184 185 185 180 179 161 150 160 139 146 140 129 115 102 78 51 59 53 46 55 75 94 91 79 85 79 87 83 71 66 74
252 247 248 236 192 239 244 247 199 192 209 217 212 210 205 199 187 172 170 175 179 177 183 171 167 161 150 154 170 159 140 127 109 66 49 70 55 55 74 53 59 58 80 85 104 103 119 109 69
242 245 241 211 203 252 253 248 210 197 209 221 223 209 206 198 181 172 172 172 174 172 183 183 173 164 159 158 164 151 124 119 82 80 88 104 99 79 74 78 87 96 84 87 90 140 171 134 204
232 245 251 253 209 216 252 226 192 179 194 209 226 220 210 202 190 178 173 168 168 175 181 182 174 168 164 160 159 145 133 169 159 152 116 100 105 102 119 58 39 95 135 105 152 196 201 179 159
228 231 246 242 246 218 253 259 179 182 186 194 205 209 211 201 196 185 174 168 172 177 178 184 176 176 164 162 178 185 188 189 188 172 152 165 165 158 177 196 227 195 163 160 198 206 244 242 215
241 216 227 241 250 248 227 251 161 152 197 204 205 203 201 198 193 190 187 177 165 162 168 183 176 173 165 177 179 206 204 204 185 177 172 186 162 190 191 216 218 214 198 199 203 223 264 255 260
180 186 187 220 236 238 241 246 222 138 282 264 212 198 191 188 189 188 182 174 161 159 162 173 180 176 173 189 197 207 201 203 194 198 196 202 177 200 196 223 228 223 219 211 217 215 230 258 260
209 227 219 210 212 219 191 241 246 44 351 307 272 199 181 179 181 180 177 176 167 166 169 171 176 178 182 196 205 208 215 217 209 201 193 213 206 210 212 221 234 238 232 225 221 227 231 235 242
215 238 251 257 245 210 195 230 129 68 20 342 217 154 146 160 168 175 175 176 169 166 167 172 175 181 187 203 210 211 207 221 215 216 213 223 229 231 237 240 247 244 241 233 226 238 235 239 237
212 224 263 272 263 254 207 195 178 147 119 89 99 125 139 147 157 168 171 173 169 166 168 176 179 184 192 205 204 204 203 210 222 232 227 234 243 247 244 242 243 241 243 240 228 233 229 237 240
258 208 218 241 248 244 229 224 209 173 165 143 131 132 129 142 150 156 163 172 169 163 169 176 188 189 190 202 201 209 217 215 233 239 237 246 249 249 246 244 246 238 232 226 223 232 234 233 226
185 199 221 237 256 261 250 207 93 189 185 203 189 160 151 150 142 139 151 164 164 161 164 174 181 189 194 205 211 216 217 224 228 241 241 250 250 247 246 256 261 256 238 219 209 226 223 235 226
234 228 225 239 234 246 265 243 107 146 178 215 204 165 150 141 139 134 140 149 157 163 169 181 191 199 204 214 219 228 228 232 238 240 242 253 260 263 264 262 264 261 252 240 221 220 221 230 234